| time (UTC) | temp C | wind direction | speed KPH | gust KPH | rain 1hr cm | rain 24hr cm | rain mn cm | humidity % | barometer mb |
| 20260905034005 | 23 | 101 | 0.0 | 0.0 | 0.00 | 1.75 | 0.00 | 95 | 1011.0 |
| 20260905033003 | 23 | 101 | 0.0 | 1.6 | 0.00 | 1.75 | 0.00 | 95 | 1011.0 |
| 20260905032504 | 23 | 101 | 0.0 | 1.6 | 0.00 | 1.75 | 0.00 | 95 | 1011.2 |
| 20260905032004 | 23 | 101 | 0.0 | 1.6 | 0.00 | 1.75 | 0.00 | 95 | 1011.3 |
| 20260905031504 | 23 | 101 | 0.0 | 1.6 | 0.00 | 1.75 | 0.00 | 95 | 1011.3 |
| 20260905031004 | 24 | 101 | 0.0 | 0.0 | 0.00 | 1.75 | 0.00 | 95 | 1011.4 |
| 20260905030004 | 24 | 101 | 0.0 | 0.0 | 0.00 | 1.75 | 0.00 | 95 | 1011.4 |
| 20260905025004 | 24 | 101 | 0.0 | 0.0 | 0.00 | 1.75 | 0.00 | 95 | 1011.5 |
| 20260905024504 | 24 | 101 | 0.0 | 0.0 | 0.00 | 1.75 | 0.00 | 95 | 1011.5 |
| 20260905024004 | 24 | 101 | 0.0 | 0.0 | 0.00 | 1.75 | 0.00 | 95 | 1011.5 |
| 20260905023504 | 24 | 101 | 0.0 | 0.0 | 0.00 | 1.75 | 0.00 | 95 | 1011.4 |
| 20260905023004 | 24 | 101 | 0.0 | 1.6 | 0.00 | 1.75 | 0.00 | 94 | 1011.5 |
| 20260905022504 | 24 | 101 | 0.0 | 1.6 | 0.00 | 1.75 | 0.00 | 94 | 1011.4 |
| 20260905022004 | 24 | 101 | 0.0 | 0.0 | 0.00 | 1.75 | 0.00 | 94 | 1011.4 |
| 20260905021504 | 24 | 101 | 0.0 | 0.0 | 0.00 | 1.75 | 0.00 | 94 | 1011.4 |
| 20260905021005 | 24 | 101 | 0.0 | 0.0 | 0.00 | 1.75 | 0.00 | 94 | 1011.3 |
| 20260905020504 | 24 | 101 | 0.0 | 1.6 | 0.00 | 1.75 | 0.00 | 95 | 1011.2 |
| 20260905020004 | 24 | 101 | 0.0 | 1.6 | 0.00 | 1.75 | 0.00 | 95 | 1011.4 |
| 20260905015503 | 24 | 79 | 0.0 | 1.6 | 0.00 | 1.75 | 0.00 | 95 | 1011.5 |
| 20260905015004 | 24 | 79 | 0.0 | 1.6 | 0.00 | 1.75 | 0.00 | 95 | 1011.5 |
| 20260905014504 | 24 | 79 | 0.0 | 1.6 | 0.00 | 1.75 | 0.00 | 95 | 1011.5 |
| 20260905013504 | 24 | 79 | 0.0 | 0.0 | 0.00 | 1.75 | 0.00 | 95 | 1011.5 |
| 20260905013004 | 24 | 79 | 0.0 | 0.0 | 0.00 | 1.75 | 0.00 | 95 | 1011.5 |
| 20260905012504 | 24 | 79 | 0.0 | 1.6 | 0.00 | 1.75 | 0.00 | 95 | 1011.4 |
| 20260905012003 | 24 | 79 | 0.0 | 1.6 | 0.00 | 1.75 | 0.00 | 95 | 1011.4 |
| 20260905011504 | 24 | 79 | 0.0 | 1.6 | 0.00 | 1.75 | 0.00 | 95 | 1011.4 |
| 20260905011004 | 24 | 79 | 0.0 | 0.0 | 0.00 | 1.75 | 0.00 | 95 | 1011.5 |
| 20260905010504 | 24 | 79 | 0.0 | 0.0 | 0.00 | 1.75 | 0.00 | 95 | 1011.4 |
| 20260905005504 | 24 | 79 | 0.0 | 0.0 | 0.00 | 1.75 | 0.00 | 94 | 1011.3 |
| 20260905005004 | 24 | 79 | 0.0 | 0.0 | 0.00 | 1.75 | 0.00 | 94 | 1011.3 |
| 20260905004504 | 24 | 79 | 0.0 | 0.0 | 0.00 | 1.75 | 0.00 | 94 | 1011.3 |
| 20260905004004 | 24 | 79 | 0.0 | 0.0 | 0.00 | 1.75 | 0.00 | 94 | 1011.3 |
| 20260905003504 | 24 | 79 | 0.0 | 0.0 | 0.00 | 1.75 | 0.00 | 94 | 1011.4 |
| 20260905003004 | 24 | 79 | 0.0 | 0.0 | 0.00 | 1.75 | 0.00 | 94 | 1011.4 |
| 20260905002504 | 25 | 79 | 0.0 | 0.0 | 0.00 | 1.75 | 0.00 | 94 | 1011.3 |
| 20260905002004 | 25 | 79 | 0.0 | 0.0 | 0.00 | 1.75 | 0.00 | 94 | 1011.3 |
| 20260905001505 | 25 | 79 | 0.0 | 0.0 | 0.00 | 1.75 | 0.00 | 93 | 1011.1 |
| 20260905001004 | 25 | 79 | 0.0 | 0.0 | 0.00 | 1.75 | 0.00 | 93 | 1010.9 |
| 20260905000504 | 25 | 79 | 0.0 | 0.0 | 0.00 | 1.75 | 0.00 | 93 | 1010.8 |
| 20260905000003 | 25 | 79 | 0.0 | 0.0 | 0.00 | 1.75 | 0.00 | 93 | 1010.8 |
| 20260904235504 | 25 | 79 | 0.0 | 0.0 | 0.00 | 1.75 | 0.00 | 92 | 1010.8 |
| 20260904235004 | 25 | 79 | 0.0 | 0.0 | 0.00 | 1.75 | 0.00 | 92 | 1010.6 |
| 20260904234504 | 25 | 79 | 0.0 | 0.0 | 0.00 | 1.75 | 0.00 | 92 | 1010.6 |
| 20260904234005 | 25 | 79 | 0.0 | 0.0 | 0.00 | 1.75 | 0.00 | 91 | 1010.6 |
| 20260904233504 | 25 | 79 | 0.0 | 0.0 | 0.00 | 1.75 | 0.00 | 91 | 1010.8 |
| 20260904233004 | 26 | 79 | 0.0 | 0.0 | 0.00 | 1.75 | 0.00 | 90 | 1010.8 |
| 20260904232504 | 26 | 79 | 0.0 | 0.0 | 0.00 | 1.75 | 0.00 | 89 | 1010.8 |
| 20260904232004 | 26 | 79 | 0.0 | 0.0 | 0.00 | 1.75 | 0.00 | 88 | 1010.9 |
| 20260904231504 | 26 | 79 | 0.0 | 0.0 | 0.00 | 1.75 | 0.00 | 88 | 1011.0 |
| 20260904231004 | 26 | 79 | 0.0 | 0.0 | 0.00 | 1.75 | 0.00 | 87 | 1011.0 |
| 20260904230504 | 26 | 79 | 0.0 | 0.0 | 0.00 | 1.75 | 0.00 | 87 | 1011.0 |
| 20260904225504 | 26 | 79 | 0.0 | 0.0 | 0.00 | 1.75 | 0.00 | 85 | 1011.4 |
| 20260904225004 | 27 | 79 | 0.0 | 0.0 | 0.00 | 1.75 | 0.00 | 85 | 1011.6 |
| 20260904224504 | 27 | 79 | 0.0 | 0.0 | 0.00 | 1.75 | 0.00 | 84 | 1011.6 |
| 20260904224004 | 27 | 79 | 0.0 | 0.0 | 0.00 | 1.75 | 0.00 | 84 | 1011.7 |
| 20260904223504 | 27 | 79 | 0.0 | 0.0 | 0.00 | 1.75 | 0.00 | 83 | 1011.8 |
| 20260904223004 | 27 | 79 | 0.0 | 0.0 | 0.00 | 1.75 | 0.00 | 83 | 1011.8 |
| 20260904222504 | 27 | 79 | 0.0 | 0.0 | 0.00 | 1.75 | 0.00 | 82 | 1011.9 |
| 20260904222004 | 27 | 79 | 0.0 | 0.0 | 0.00 | 1.75 | 0.00 | 82 | 1011.8 |
| 20260904221504 | 27 | 79 | 0.0 | 0.0 | 0.00 | 1.75 | 0.00 | 81 | 1011.8 |
| 20260904220504 | 28 | 118 | 0.0 | 1.6 | 0.00 | 1.75 | 0.00 | 80 | 1011.9 |
| 20260904215504 | 28 | 71 | 0.0 | 1.6 | 0.00 | 1.75 | 0.00 | 80 | 1011.8 |
| 20260904214504 | 28 | 43 | 0.0 | 3.2 | 0.00 | 1.75 | 0.00 | 80 | 1011.8 |
| 20260904214004 | 28 | 269 | 0.0 | 3.2 | 0.00 | 1.75 | 0.00 | 79 | 1011.8 |
| 20260904213503 | 28 | 7 | 0.0 | 3.2 | 0.00 | 1.75 | 0.00 | 79 | 1011.7 |
| 20260904213005 | 29 | 34 | 0.0 | 1.6 | 0.00 | 1.75 | 0.00 | 79 | 1011.5 |
| 20260904212504 | 29 | 328 | 0.0 | 4.8 | 0.00 | 1.75 | 0.00 | 78 | 1011.3 |
| 20260904211004 | 30 | 47 | 0.0 | 4.8 | 0.00 | 1.75 | 0.00 | 77 | 1011.5 |
| 20260904210504 | 30 | 13 | 0.0 | 8.0 | 0.00 | 1.75 | 0.00 | 76 | 1011.6 |
| 20260904210004 | 30 | 334 | 3.2 | 8.0 | 0.00 | 1.75 | 0.00 | 75 | 1011.6 |
| 20260904205504 | 30 | 13 | 3.2 | 8.0 | 0.00 | 1.75 | 0.00 | 75 | 1011.7 |
| 20260904205004 | 30 | 2 | 0.0 | 9.7 | 0.00 | 1.75 | 0.00 | 76 | 1011.7 |
| 20260904204503 | 30 | 25 | 3.2 | 9.7 | 0.00 | 1.75 | 0.00 | 75 | 1011.8 |
| 20260904203505 | 30 | 29 | 3.2 | 9.7 | 0.00 | 1.75 | 0.00 | 74 | 1011.6 |
| 20260904203004 | 30 | 35 | 1.6 | 8.0 | 0.00 | 1.75 | 0.00 | 74 | 1011.7 |
| 20260904202504 | 30 | 28 | 0.0 | 8.0 | 0.00 | 1.75 | 0.00 | 75 | 1011.6 |
| 20260904202004 | 30 | 21 | 3.2 | 8.0 | 0.00 | 1.75 | 0.00 | 74 | 1011.5 |
| 20260904201504 | 30 | 7 | 1.6 | 8.0 | 0.00 | 1.75 | 0.00 | 74 | 1011.5 |
| 20260904201004 | 30 | 22 | 0.0 | 8.0 | 0.00 | 1.75 | 0.00 | 74 | 1011.5 |
| 20260904200504 | 30 | 356 | 1.6 | 4.8 | 0.00 | 1.75 | 0.00 | 74 | 1011.6 |
| 20260904195503 | 30 | 0 | 0.0 | 8.0 | 0.00 | 1.75 | 0.00 | 74 | 1011.7 |
| 20260904195004 | 30 | 15 | 1.6 | 8.0 | 0.00 | 1.75 | 0.00 | 76 | 1011.8 |
| 20260904193504 | 30 | 1 | 0.0 | 8.0 | 0.00 | 1.75 | 0.00 | 74 | 1012.0 |
| 20260904193004 | 30 | 32 | 1.6 | 8.0 | 0.00 | 1.75 | 0.00 | 74 | 1012.0 |
| 20260904192504 | 30 | 338 | 1.6 | 8.0 | 0.00 | 1.75 | 0.00 | 75 | 1011.9 |
| 20260904192004 | 30 | 5 | 1.6 | 8.0 | 0.00 | 1.75 | 0.00 | 75 | 1012.1 |
| 20260904191504 | 30 | 355 | 1.6 | 8.0 | 0.00 | 1.75 | 0.00 | 74 | 1012.1 |
| 20260904191004 | 30 | 17 | 1.6 | 9.7 | 0.00 | 1.75 | 0.00 | 72 | 1012.2 |
| 20260904190504 | 30 | 16 | 1.6 | 9.7 | 0.00 | 1.75 | 0.00 | 72 | 1012.3 |
| 20260904190004 | 30 | 39 | 3.2 | 9.7 | 0.00 | 1.75 | 0.00 | 73 | 1012.3 |
| 20260904185504 | 31 | 0 | 0.0 | 4.8 | 0.00 | 1.75 | 0.00 | 73 | 1012.3 |
| 20260904185004 | 30 | 39 | 0.0 | 4.8 | 0.00 | 1.75 | 0.00 | 75 | 1012.4 |
| 20260904184003 | 30 | 240 | 0.0 | 4.8 | 0.00 | 1.75 | 0.00 | 73 | 1012.5 |
| 20260904183503 | 30 | 352 | 0.0 | 4.8 | 0.00 | 1.75 | 0.00 | 73 | 1012.4 |
| 20260904183004 | 31 | 162 | 1.6 | 4.8 | 0.00 | 1.75 | 0.00 | 71 | 1012.3 |
| 20260904182503 | 31 | 47 | 1.6 | 4.8 | 0.00 | 1.75 | 0.00 | 71 | 1012.3 |
| 20260904182005 | 31 | 12 | 1.6 | 4.8 | 0.00 | 1.75 | 0.00 | 73 | 1012.5 |
| 20260904181504 | 31 | 319 | 1.6 | 4.8 | 0.00 | 1.75 | 0.00 | 71 | 1012.5 |
| 20260904181004 | 31 | 111 | 1.6 | 4.8 | 0.00 | 1.75 | 0.00 | 71 | 1012.5 |
| 20260904180504 | 31 | 30 | 0.0 | 4.8 | 0.00 | 1.75 | 0.00 | 74 | 1012.6 |
| 20260904175503 | 31 | 76 | 0.0 | 3.2 | 0.00 | 1.75 | 0.00 | 74 | 1012.7 |
| 20260904174504 | 30 | 7 | 1.6 | 4.8 | 0.00 | 1.75 | 0.00 | 74 | 1012.7 |
| 20260904173504 | 30 | 330 | 1.6 | 9.7 | 0.00 | 1.75 | 0.00 | 73 | 1012.6 |
| 20260904173004 | 30 | 341 | 1.6 | 9.7 | 0.00 | 1.75 | 0.00 | 75 | 1012.7 |
| 20260904172504 | 30 | 9 | 1.6 | 9.7 | 0.00 | 1.75 | 0.00 | 75 | 1012.7 |
| 20260904172004 | 30 | 1 | 1.6 | 9.7 | 0.00 | 1.75 | 0.00 | 75 | 1012.8 |
| 20260904171504 | 30 | 19 | 0.0 | 4.8 | 0.00 | 1.75 | 0.00 | 77 | 1012.8 |
| 20260904171004 | 30 | 347 | 0.0 | 9.7 | 0.00 | 1.75 | 0.00 | 76 | 1012.9 |
| 20260904170503 | 30 | 356 | 0.0 | 9.7 | 0.00 | 1.75 | 0.00 | 76 | 1012.8 |
| 20260904170003 | 30 | 11 | 3.2 | 9.7 | 0.00 | 1.75 | 0.00 | 75 | 1012.9 |
| 20260904165504 | 30 | 41 | 1.6 | 4.8 | 0.00 | 1.75 | 0.00 | 77 | 1012.8 |
| 20260904165004 | 30 | 143 | 1.6 | 4.8 | 0.00 | 1.75 | 0.00 | 77 | 1012.9 |
| 20260904164004 | 29 | 21 | 0.0 | 8.0 | 0.00 | 1.75 | 0.00 | 77 | 1013.0 |
| 20260904163504 | 29 | 304 | 1.6 | 9.7 | 0.00 | 1.75 | 0.00 | 77 | 1013.1 |
| 20260904162504 | 30 | 9 | 1.6 | 8.0 | 0.00 | 1.75 | 0.00 | 78 | 1013.1 |
| 20260904162005 | 29 | 78 | 1.6 | 8.0 | 0.00 | 1.75 | 0.00 | 79 | 1013.1 |
| 20260904161504 | 28 | 346 | 1.6 | 9.7 | 0.00 | 1.75 | 0.00 | 78 | 1013.2 |
| 20260904161005 | 29 | 356 | 3.2 | 9.7 | 0.00 | 1.75 | 0.00 | 80 | 1013.2 |
| 20260904160505 | 28 | 45 | 1.6 | 4.8 | 0.00 | 1.75 | 0.00 | 80 | 1013.3 |
| 20260904160004 | 28 | 286 | 0.0 | 9.7 | 0.00 | 1.75 | 0.00 | 81 | 1013.2 |
| 20260904155504 | 28 | 333 | 3.2 | 9.7 | 0.00 | 1.75 | 1.75 | 81 | 1013.3 |
| 20260904155005 | 28 | 23 | 3.2 | 8.0 | 0.00 | 1.75 | 1.75 | 80 | 1013.2 |
| 20260904154004 | 28 | 345 | 0.0 | 11.3 | 0.00 | 1.75 | 1.75 | 83 | 1013.0 |
| 20260904153504 | 28 | 6 | 1.6 | 11.3 | 0.00 | 1.75 | 1.75 | 84 | 1013.0 |
| 20260904152004 | 27 | 17 | 3.2 | 11.3 | 0.00 | 1.75 | 1.75 | 84 | 1013.3 |
| 20260904151503 | 27 | 34 | 1.6 | 4.8 | 0.00 | 1.75 | 1.75 | 84 | 1013.3 |
| 20260904151004 | 27 | 24 | 3.2 | 11.3 | 0.00 | 1.75 | 1.75 | 84 | 1013.2 |
| 20260904150504 | 27 | 16 | 3.2 | 11.3 | 0.00 | 1.75 | 1.75 | 84 | 1013.3 |
| 20260904145004 | 27 | 4 | 4.8 | 11.3 | 0.00 | 1.75 | 1.75 | 84 | 1013.4 |
| 20260904144504 | 27 | 13 | 1.6 | 9.7 | 0.00 | 1.75 | 1.75 | 85 | 1013.4 |
| 20260904143504 | 27 | 8 | 1.6 | 19.3 | 0.00 | 1.75 | 1.75 | 86 | 1013.4 |
| 20260904143004 | 26 | 45 | 6.4 | 19.3 | 0.00 | 1.75 | 1.75 | 86 | 1013.4 |
| 20260904142504 | 27 | 346 | 0.0 | 8.0 | 0.00 | 1.75 | 1.75 | 88 | 1013.4 |
| 20260904142004 | 26 | 350 | 3.2 | 9.7 | 0.00 | 1.75 | 1.75 | 89 | 1013.4 |
| 20260904141504 | 26 | 265 | 0.0 | 9.7 | 0.00 | 1.75 | 1.75 | 89 | 1013.4 |
| 20260904141004 | 26 | 358 | 1.6 | 11.3 | 0.00 | 1.75 | 1.75 | 89 | 1013.3 |
| 20260904140504 | 26 | 11 | 0.0 | 11.3 | 0.00 | 1.75 | 1.75 | 91 | 1013.2 |
| 20260904140004 | 26 | 341 | 1.6 | 8.0 | 0.00 | 1.75 | 1.75 | 91 | 1013.2 |
| 20260904135504 | 26 | 348 | 3.2 | 8.0 | 0.00 | 1.75 | 1.75 | 91 | 1013.1 |
| 20260904135004 | 26 | 264 | 1.6 | 8.0 | 0.00 | 1.75 | 1.75 | 93 | 1013.0 |
| 20260904134504 | 25 | 349 | 1.6 | 8.0 | 0.00 | 1.75 | 1.75 | 93 | 1013.0 |
| 20260904134005 | 25 | 303 | 1.6 | 9.7 | 0.00 | 1.75 | 1.75 | 94 | 1013.0 |
| 20260904133504 | 25 | 343 | 1.6 | 9.7 | 0.00 | 1.75 | 1.75 | 95 | 1013.1 |
| 20260904133004 | 25 | 2 | 1.6 | 8.0 | 0.00 | 1.75 | 1.75 | 96 | 1013.2 |
| 20260904132504 | 24 | 311 | 0.0 | 4.8 | 0.00 | 1.75 | 1.75 | 96 | 1013.2 |
| 20260904132004 | 24 | 315 | 1.6 | 4.8 | 0.00 | 1.75 | 1.75 | 96 | 1013.3 |
| 20260904131504 | 24 | 316 | 0.0 | 4.8 | 0.00 | 1.75 | 1.75 | 97 | 1013.2 |
| 20260904131003 | 24 | 31 | 1.6 | 4.8 | 0.00 | 1.75 | 1.75 | 97 | 1013.3 |
| 20260904130503 | 24 | 355 | 1.6 | 4.8 | 0.00 | 1.75 | 1.75 | 97 | 1013.2 |
| 20260904130004 | 24 | 2 | 0.0 | 4.8 | 0.00 | 1.75 | 1.75 | 97 | 1013.2 |
| 20260904125505 | 23 | 335 | 1.6 | 8.0 | 0.00 | 1.75 | 1.75 | 97 | 1013.3 |
| 20260904125004 | 23 | 2 | 1.6 | 8.0 | 0.00 | 1.75 | 1.75 | 97 | 1013.4 |
| 20260904124504 | 23 | 26 | 0.0 | 8.0 | 0.00 | 1.75 | 1.75 | 98 | 1013.3 |
| 20260904123504 | 23 | 117 | 0.0 | 3.2 | 0.00 | 1.75 | 1.75 | 98 | 1013.2 |
| 20260904123004 | 23 | 347 | 0.0 | 3.2 | 0.00 | 1.75 | 1.75 | 98 | 1013.3 |
| 20260904122504 | 23 | 89 | 0.0 | 3.2 | 0.00 | 1.75 | 1.75 | 98 | 1013.3 |
| 20260904121004 | 22 | 97 | 1.6 | 4.8 | 0.00 | 1.75 | 1.75 | 98 | 1013.3 |
| 20260904120504 | 22 | 36 | 0.0 | 3.2 | 0.00 | 1.75 | 1.75 | 98 | 1013.3 |
| 20260904120004 | 22 | 252 | 0.0 | 1.6 | 0.00 | 1.75 | 1.75 | 98 | 1013.2 |
| 20260904115505 | 22 | 50 | 0.0 | 4.8 | 0.00 | 1.75 | 1.75 | 98 | 1013.2 |
| 20260904115004 | 22 | 319 | 0.0 | 4.8 | 0.00 | 1.75 | 1.75 | 98 | 1013.2 |
| 20260904114503 | 22 | 262 | 0.0 | 4.8 | 0.00 | 1.75 | 1.75 | 98 | 1013.1 |
| 20260904113504 | 22 | 75 | 0.0 | 4.8 | 0.00 | 1.75 | 1.75 | 98 | 1013.3 |
| 20260904113004 | 22 | 144 | 0.0 | 4.8 | 0.00 | 1.75 | 1.75 | 98 | 1013.3 |
| 20260904112504 | 22 | 223 | 1.6 | 4.8 | 0.00 | 1.75 | 1.75 | 98 | 1013.4 |
| 20260904110504 | 22 | 87 | 0.0 | 4.8 | 0.00 | 1.75 | 1.75 | 98 | 1013.1 |
| 20260904110004 | 22 | 336 | 0.0 | 3.2 | 0.00 | 1.75 | 1.75 | 98 | 1013.0 |
| 20260904104504 | 22 | 73 | 0.0 | 3.2 | 0.00 | 1.75 | 1.75 | 98 | 1012.6 |
| 20260904104004 | 21 | 117 | 0.0 | 3.2 | 0.00 | 1.75 | 1.75 | 98 | 1012.4 |
| 20260904103504 | 21 | 125 | 0.0 | 1.6 | 0.00 | 1.75 | 1.75 | 98 | 1012.4 |
| 20260904103005 | 21 | 128 | 0.0 | 1.6 | 0.00 | 1.75 | 1.75 | 98 | 1012.3 |
| 20260904102504 | 22 | 220 | 0.0 | 1.6 | 0.00 | 1.75 | 1.75 | 98 | 1012.3 |
| 20260904101504 | 22 | 157 | 1.6 | 3.2 | 0.00 | 1.75 | 1.75 | 98 | 1012.2 |
| 20260904101004 | 22 | 135 | 0.0 | 3.2 | 0.00 | 1.75 | 1.75 | 98 | 1012.4 |
| 20260904100504 | 22 | 132 | 0.0 | 4.8 | 0.00 | 1.75 | 1.75 | 98 | 1012.5 |
| 20260904100004 | 22 | 141 | 1.6 | 4.8 | 0.00 | 1.75 | 1.75 | 98 | 1012.4 |
| 20260904095504 | 22 | 117 | 0.0 | 1.6 | 0.00 | 1.75 | 1.75 | 98 | 1012.5 |
| 20260904095004 | 22 | 117 | 0.0 | 1.6 | 0.00 | 1.75 | 1.75 | 98 | 1012.4 |
| 20260904094504 | 22 | 117 | 0.0 | 1.6 | 0.00 | 1.75 | 1.75 | 98 | 1012.4 |
| 20260904093004 | 22 | 129 | 0.0 | 1.6 | 0.00 | 1.75 | 1.75 | 98 | 1012.3 |
| 20260904092005 | 22 | 130 | 0.0 | 0.0 | 0.00 | 1.75 | 1.75 | 98 | 1012.4 |
| 20260904090504 | 22 | 131 | 0.0 | 0.0 | 0.00 | 1.75 | 1.75 | 98 | 1012.5 |
| 20260904090004 | 22 | 131 | 0.0 | 0.0 | 0.00 | 1.75 | 1.75 | 98 | 1012.4 |
| 20260904085504 | 22 | 131 | 0.0 | 0.0 | 0.00 | 1.75 | 1.75 | 98 | 1012.4 |
| 20260904085004 | 22 | 131 | 0.0 | 0.0 | 0.00 | 1.75 | 1.75 | 98 | 1012.3 |
| 20260904084504 | 22 | 131 | 0.0 | 0.0 | 0.00 | 1.75 | 1.75 | 98 | 1012.2 |
| 20260904084005 | 22 | 130 | 0.0 | 0.0 | 0.00 | 1.75 | 1.75 | 98 | 1012.2 |
| 20260904083504 | 22 | 130 | 0.0 | 0.0 | 0.00 | 1.80 | 1.75 | 98 | 1012.3 |
| 20260904083004 | 22 | 135 | 0.0 | 1.6 | 0.00 | 1.83 | 1.75 | 98 | 1012.3 |
| 20260904082504 | 22 | 136 | 0.0 | 1.6 | 0.03 | 1.83 | 1.75 | 98 | 1012.5 |
| 20260904082005 | 22 | 133 | 0.0 | 1.6 | 0.03 | 1.83 | 1.75 | 98 | 1012.7 |
| 20260904081505 | 22 | 196 | 0.0 | 3.2 | 0.03 | 1.83 | 1.75 | 98 | 1012.9 |
| 20260904081004 | 22 | 153 | 0.0 | 3.2 | 0.03 | 1.83 | 1.75 | 98 | 1013.0 |
| 20260904080504 | 22 | 121 | 0.0 | 1.6 | 0.05 | 1.83 | 1.75 | 98 | 1012.9 |
| 20260904075004 | 22 | 228 | 0.0 | 3.2 | 0.13 | 2.21 | 1.75 | 98 | 1013.2 |
| 20260904074504 | 22 | 163 | 0.0 | 3.2 | 0.18 | 2.21 | 1.75 | 98 | 1013.1 |
| 20260904074003 | 22 | 236 | 0.0 | 1.6 | 0.23 | 2.21 | 1.75 | 98 | 1013.2 |
| 20260904073504 | 22 | 247 | 0.0 | 1.6 | 0.28 | 2.21 | 1.75 | 98 | 1013.3 |
| 20260904073004 | 22 | 262 | 0.0 | 1.6 | 0.30 | 2.21 | 1.75 | 98 | 1013.4 |
| 20260904072504 | 22 | 262 | 0.0 | 3.2 | 0.30 | 2.18 | 1.73 | 98 | 1013.5 |
| 20260904072005 | 22 | 243 | 0.0 | 3.2 | 0.33 | 2.18 | 1.73 | 98 | 1013.4 |
| 20260904071504 | 22 | 200 | 0.0 | 3.2 | 0.33 | 2.18 | 1.73 | 98 | 1013.4 |
| 20260904071004 | 22 | 159 | 0.0 | 0.0 | 0.36 | 2.18 | 1.73 | 97 | 1013.6 |
| 20260904070504 | 22 | 157 | 0.0 | 0.0 | 0.33 | 2.16 | 1.70 | 98 | 1013.4 |
| 20260904065504 | 22 | 160 | 0.0 | 3.2 | 0.41 | 2.11 | 1.65 | 97 | 1013.4 |
| 20260904065004 | 22 | 161 | 0.0 | 3.2 | 0.53 | 2.08 | 1.63 | 97 | 1013.5 |
| 20260904064504 | 22 | 162 | 0.0 | 3.2 | 0.61 | 2.03 | 1.57 | 97 | 1013.7 |
| 20260904064004 | 22 | 172 | 0.0 | 1.6 | 1.12 | 1.98 | 1.52 | 97 | 1013.9 |
| 20260904063504 | 22 | 166 | 0.0 | 1.6 | 1.47 | 1.93 | 1.47 | 97 | 1014.1 |
| 20260904063004 | 22 | 150 | 0.0 | 1.6 | 1.45 | 1.91 | 1.45 | 97 | 1014.2 |
| 20260904062503 | 22 | 155 | 0.0 | 1.6 | 1.42 | 1.88 | 1.42 | 97 | 1014.2 |
| 20260904062005 | 22 | 196 | 0.0 | 4.8 | 1.40 | 1.85 | 1.40 | 97 | 1014.3 |
| 20260904061504 | 22 | 135 | 0.0 | 4.8 | 1.40 | 1.85 | 1.40 | 97 | 1014.7 |
| 20260904061004 | 22 | 153 | 0.0 | 4.8 | 1.37 | 1.83 | 1.37 | 97 | 1015.0 |
| 20260904060504 | 22 | 337 | 0.0 | 12.9 | 1.37 | 1.83 | 1.37 | 97 | 1015.2 |
| 20260904060003 | 22 | 18 | 3.2 | 20.9 | 1.35 | 1.80 | 1.35 | 97 | 1015.4 |
| 20260904055005 | 22 | 332 | 4.8 | 19.3 | 1.09 | 1.57 | 1.09 | 96 | 1015.2 |
| 20260904054504 | 23 | 347 | 4.8 | 38.6 | 0.97 | 1.50 | 0.97 | 96 | 1015.2 |
| 20260904053504 | 25 | 326 | 8.0 | 20.9 | 0.00 | 0.53 | 0.00 | 97 | 1014.0 |
| 20260904053004 | 25 | 135 | 0.0 | 0.0 | 0.00 | 0.53 | 0.00 | 97 | 1013.2 |
| 20260904052503 | 25 | 134 | 0.0 | 0.0 | 0.00 | 0.53 | 0.00 | 97 | 1012.8 |
| 20260904052004 | 25 | 134 | 0.0 | 0.0 | 0.00 | 0.53 | 0.00 | 97 | 1012.5 |
| 20260904051503 | 25 | 134 | 0.0 | 0.0 | 0.00 | 0.53 | 0.00 | 97 | 1012.5 |
| 20260904051005 | 25 | 134 | 0.0 | 0.0 | 0.00 | 0.53 | 0.00 | 97 | 1012.6 |
| 20260904050504 | 25 | 134 | 0.0 | 0.0 | 0.00 | 0.53 | 0.00 | 97 | 1012.7 |
| 20260904045504 | 25 | 134 | 0.0 | 0.0 | 0.00 | 0.53 | 0.00 | 97 | 1012.7 |
| 20260904045004 | 25 | 134 | 0.0 | 0.0 | 0.00 | 0.53 | 0.00 | 97 | 1012.8 |
| 20260904044503 | 25 | 134 | 0.0 | 0.0 | 0.00 | 0.53 | 0.00 | 97 | 1012.9 |
| 20260904044004 | 25 | 134 | 0.0 | 0.0 | 0.00 | 0.53 | 0.00 | 97 | 1013.0 |
| 20260904043504 | 25 | 134 | 0.0 | 0.0 | 0.00 | 0.53 | 0.00 | 97 | 1012.9 |
| 20260904043004 | 25 | 134 | 0.0 | 0.0 | 0.00 | 0.53 | 0.00 | 97 | 1012.6 |
| 20260904042504 | 25 | 134 | 0.0 | 0.0 | 0.00 | 0.53 | 0.00 | 97 | 1012.7 |
| 20260904042004 | 25 | 134 | 0.0 | 0.0 | 0.00 | 0.53 | 0.00 | 97 | 1012.6 |
| 20260904041504 | 25 | 134 | 0.0 | 0.0 | 0.00 | 0.53 | 0.00 | 97 | 1012.6 |
| 20260904041004 | 25 | 134 | 0.0 | 0.0 | 0.00 | 0.53 | 0.00 | 97 | 1012.6 |
| 20260904040504 | 25 | 134 | 0.0 | 0.0 | 0.00 | 0.53 | 0.00 | 97 | 1012.7 |
| 20260904040004 | 25 | 134 | 0.0 | 0.0 | 0.00 | 0.53 | 0.00 | 97 | 1012.9 |
| 20260904035505 | 25 | 134 | 0.0 | 0.0 | 0.00 | 0.53 | 0.00 | 97 | 1013.1 |
| 20260904035004 | 25 | 134 | 0.0 | 0.0 | 0.00 | 0.53 | 0.00 | 97 | 1013.1 |
| 20260904034503 | 25 | 134 | 0.0 | 0.0 | 0.00 | 0.53 | 0.00 | 97 | 1013.2 |